Time,TemperatureF,DewpointF,PressureIn,WindDirection,WindDirectionDegrees,WindSpeedMPH,WindSpeedGustMPH,Humidity,HourlyPrecipIn,Conditions,Clouds,dailyrainin,SoftwareType,DateUTC
2013-07-27 00:01:00,70.0,64.5,29.87,WSW,247,0.0,1.1,83,0.00,,,0.00,Weather8,2013-07-27 04:01:00,
2013-07-27 00:04:00,69.8,64.4,29.87,WSW,247,1.6,1.6,83,0.00,,,0.00,Weather8,2013-07-27 04:04:00,
2013-07-27 00:09:00,69.8,64.4,29.87,WNW,292,0.0,1.6,83,0.00,,,0.00,Weather8,2013-07-27 04:09:00,
2013-07-27 00:14:00,69.7,64.3,29.88,SW,225,0.4,1.6,83,0.00,,,0.00,Weather8,2013-07-27 04:14:00,
2013-07-27 00:19:00,69.7,64.3,29.87,West,270,0.2,1.3,83,0.00,,,0.00,Weather8,2013-07-27 04:19:00,
2013-07-27 00:24:00,69.5,64.1,29.88,SSW,202,0.2,1.3,83,0.00,,,0.00,Weather8,2013-07-27 04:24:00,
2013-07-27 00:29:00,69.5,64.1,29.88,West,270,0.9,1.3,83,0.00,,,0.00,Weather8,2013-07-27 04:29:00,
2013-07-27 00:34:00,69.5,64.1,29.87,SSW,202,0.0,1.3,83,0.00,,,0.00,Weather8,2013-07-27 04:34:00,
2013-07-27 00:36:00,69.5,64.1,29.87,NW,315,0.7,1.3,83,0.00,,,0.00,Weather8,2013-07-27 04:36:00,
2013-07-27 00:41:00,69.3,63.9,29.87,SSW,202,0.0,0.9,83,0.00,,,0.00,Weather8,2013-07-27 04:41:00,
2013-07-27 00:46:00,69.1,63.7,29.87,SW,225,0.4,0.7,83,0.00,,,0.00,Weather8,2013-07-27 04:46:00,
2013-07-27 00:51:00,69.1,63.7,29.87,West,270,0.0,0.7,83,0.00,,,0.00,Weather8,2013-07-27 04:51:00,
2013-07-27 00:56:00,69.1,63.7,29.87,West,270,0.0,0.7,83,0.00,,,0.00,Weather8,2013-07-27 04:56:00,
2013-07-27 01:01:00,68.9,63.5,29.87,SW,225,0.9,0.9,83,0.00,,,0.00,Weather8,2013-07-27 05:01:00,
2013-07-27 01:06:00,68.9,63.5,29.88,SE,135,0.0,0.9,83,0.00,,,0.00,Weather8,2013-07-27 05:06:00,
2013-07-27 01:11:00,68.9,63.5,29.88,WSW,247,0.0,0.9,83,0.00,,,0.00,Weather8,2013-07-27 05:11:00,
2013-07-27 01:16:00,68.8,63.4,29.88,SW,225,0.4,0.7,83,0.00,,,0.00,Weather8,2013-07-27 05:16:00,
2013-07-27 01:21:00,68.8,63.4,29.87,SW,225,0.0,0.7,83,0.00,,,0.00,Weather8,2013-07-27 05:21:00,
2013-07-27 01:26:00,68.8,63.4,29.88,NNW,337,0.0,0.4,83,0.00,,,0.00,Weather8,2013-07-27 05:26:00,
2013-07-27 01:31:00,68.6,63.2,29.88,SW,225,0.0,0.4,83,0.00,,,0.00,Weather8,2013-07-27 05:31:00,
2013-07-27 01:36:00,68.6,63.2,29.88,SW,225,0.0,0.4,83,0.00,,,0.00,Weather8,2013-07-27 05:36:00,
2013-07-27 01:42:00,68.4,63.1,29.87,SSW,202,0.9,0.9,83,0.00,,,0.00,Weather8,2013-07-27 05:42:00,
2013-07-27 01:47:00,68.4,63.1,29.87,South,180,0.4,1.6,83,0.00,,,0.00,Weather8,2013-07-27 05:47:00,
2013-07-27 01:52:00,68.2,62.9,29.87,SW,225,0.7,1.6,83,0.00,,,0.00,Weather8,2013-07-27 05:52:00,
2013-07-27 01:57:00,68.2,63.2,29.87,SW,225,0.4,1.1,84,0.00,,,0.00,Weather8,2013-07-27 05:57:00,
2013-07-27 02:02:00,68.0,63.0,29.87,SW,225,0.4,1.1,84,0.00,,,0.00,Weather8,2013-07-27 06:02:00,
2013-07-27 02:07:00,68.0,63.0,29.87,SW,225,0.4,1.1,84,0.00,,,0.00,Weather8,2013-07-27 06:07:00,
2013-07-27 02:12:00,68.0,63.0,29.87,SSE,157,0.0,1.1,84,0.00,,,0.00,Weather8,2013-07-27 06:12:00,
2013-07-27 02:17:00,67.9,62.8,29.87,WSW,247,0.0,0.7,84,0.00,,,0.00,Weather8,2013-07-27 06:17:00,
2013-07-27 02:22:00,67.9,62.8,29.87,WSW,247,0.0,0.0,84,0.00,,,0.00,Weather8,2013-07-27 06:22:00,
2013-07-27 02:27:00,67.9,62.8,29.86,SSW,202,0.0,0.0,84,0.00,,,0.00,Weather8,2013-07-27 06:27:00,
2013-07-27 02:32:00,67.9,62.6,29.87,SSW,202,0.0,0.0,83,0.00,,,0.00,Weather8,2013-07-27 06:32:00,
2013-07-27 02:37:00,67.7,62.4,29.86,SSW,202,0.0,0.0,83,0.00,,,0.00,Weather8,2013-07-27 06:37:00,
2013-07-27 02:42:00,67.7,62.4,29.87,SSW,202,0.0,0.0,83,0.00,,,0.00,Weather8,2013-07-27 06:42:00,
2013-07-27 02:47:00,67.7,62.4,29.86,WSW,247,0.0,0.0,83,0.00,,,0.00,Weather8,2013-07-27 06:47:00,
2013-07-27 02:52:00,67.7,62.4,29.86,WSW,247,0.0,0.0,83,0.00,,,0.00,Weather8,2013-07-27 06:52:00,
2013-07-27 02:57:00,67.5,62.2,29.86,WSW,247,0.0,0.0,83,0.00,,,0.00,Weather8,2013-07-27 06:57:00,
2013-07-27 03:02:00,67.5,62.2,29.86,WSW,247,0.0,0.0,83,0.00,,,0.00,Weather8,2013-07-27 07:02:00,
2013-07-27 03:07:00,67.3,62.0,29.86,WSW,247,0.0,0.0,83,0.00,,,0.00,Weather8,2013-07-27 07:07:00,
2013-07-27 03:12:00,67.3,62.0,29.86,WSW,247,0.0,0.0,83,0.00,,,0.00,Weather8,2013-07-27 07:12:00,
2013-07-27 03:17:00,67.0,61.9,29.86,WSW,247,0.0,0.0,84,0.00,,,0.00,Weather8,2013-07-27 07:17:00,
2013-07-27 03:22:00,67.0,61.9,29.86,WSW,247,0.0,0.0,84,0.00,,,0.00,Weather8,2013-07-27 07:22:00,
2013-07-27 03:27:00,66.8,61.7,29.85,NW,315,0.0,0.0,84,0.00,,,0.00,Weather8,2013-07-27 07:27:00,
2013-07-27 03:32:00,66.8,61.7,29.85,NW,315,0.0,0.4,84,0.00,,,0.00,Weather8,2013-07-27 07:32:00,
2013-07-27 03:37:00,66.6,61.6,29.85,NW,315,0.0,0.4,84,0.00,,,0.00,Weather8,2013-07-27 07:37:00,
2013-07-27 03:42:00,66.6,61.6,29.86,NW,315,0.0,0.0,84,0.00,,,0.00,Weather8,2013-07-27 07:42:00,
2013-07-27 03:47:00,66.6,61.6,29.86,NW,315,0.0,0.0,84,0.00,,,0.00,Weather8,2013-07-27 07:47:00,
2013-07-27 03:52:00,66.6,61.6,29.86,NW,315,0.0,0.0,84,0.00,,,0.00,Weather8,2013-07-27 07:52:00,
2013-07-27 03:57:00,66.4,61.4,29.86,WNW,292,0.0,0.0,84,0.00,,,0.00,Weather8,2013-07-27 07:57:00,
2013-07-27 04:02:00,66.2,61.2,29.86,WNW,292,0.0,0.0,84,0.00,,,0.00,Weather8,2013-07-27 08:02:00,
2013-07-27 04:07:00,66.2,61.2,29.86,WNW,292,0.0,0.0,84,0.00,,,0.00,Weather8,2013-07-27 08:07:00,
2013-07-27 04:12:00,66.2,61.2,29.86,North,0,0.0,0.4,84,0.00,,,0.00,Weather8,2013-07-27 08:12:00,
2013-07-27 04:17:00,66.1,61.0,29.85,North,0,0.0,0.4,84,0.00,,,0.00,Weather8,2013-07-27 08:17:00,
2013-07-27 04:22:00,66.1,61.0,29.85,North,0,0.0,0.0,84,0.00,,,0.00,Weather8,2013-07-27 08:22:00,
2013-07-27 04:27:00,65.9,60.9,29.85,North,0,0.0,0.0,84,0.00,,,0.00,Weather8,2013-07-27 08:27:00,
2013-07-27 04:32:00,65.9,60.9,29.85,North,0,0.0,0.0,84,0.00,,,0.00,Weather8,2013-07-27 08:32:00,
2013-07-27 04:38:00,66.1,61.0,29.85,North,0,0.0,0.0,84,0.00,,,0.00,Weather8,2013-07-27 08:38:00,
2013-07-27 04:43:00,65.9,60.9,29.85,North,0,0.0,0.0,84,0.00,,,0.00,Weather8,2013-07-27 08:43:00,
2013-07-27 04:48:00,65.9,60.9,29.86,North,0,0.0,0.0,84,0.00,,,0.00,Weather8,2013-07-27 08:48:00,
2013-07-27 04:53:00,65.9,60.9,29.86,South,180,0.0,0.0,84,0.00,,,0.00,Weather8,2013-07-27 08:53:00,
2013-07-27 04:58:00,65.7,60.8,29.85,South,180,0.0,0.0,84,0.00,,,0.00,Weather8,2013-07-27 08:58:00,
2013-07-27 05:03:00,65.7,60.8,29.86,NNW,337,0.0,0.0,84,0.00,,,0.00,Weather8,2013-07-27 09:03:00,
2013-07-27 05:08:00,65.7,60.8,29.86,NNW,337,0.0,0.0,84,0.00,,,0.00,Weather8,2013-07-27 09:08:00,
2013-07-27 05:13:00,65.7,60.8,29.86,NNW,337,0.0,0.0,84,0.00,,,0.00,Weather8,2013-07-27 09:13:00,
2013-07-27 05:18:00,65.5,60.6,29.86,NNW,337,0.0,0.0,84,0.00,,,0.00,Weather8,2013-07-27 09:18:00,
2013-07-27 05:23:00,65.5,60.6,29.86,NNW,337,0.0,0.0,84,0.00,,,0.00,Weather8,2013-07-27 09:23:00,
2013-07-27 05:28:00,65.5,60.8,29.86,NNW,337,0.0,0.0,85,0.00,,,0.00,Weather8,2013-07-27 09:28:00,
2013-07-27 05:33:00,65.5,60.8,29.86,NNW,337,0.0,0.0,85,0.00,,,0.00,Weather8,2013-07-27 09:33:00,
2013-07-27 05:38:00,65.5,60.8,29.86,NNW,337,0.0,0.0,85,0.00,,,0.00,Weather8,2013-07-27 09:38:00,
2013-07-27 05:43:00,65.5,60.8,29.86,NNW,337,0.0,0.0,85,0.00,,,0.00,Weather8,2013-07-27 09:43:00,
2013-07-27 05:48:00,65.5,60.8,29.86,NNW,337,0.0,0.0,85,0.00,,,0.00,Weather8,2013-07-27 09:48:00,
2013-07-27 05:53:00,65.5,60.8,29.86,NNW,337,0.0,0.0,85,0.00,,,0.00,Weather8,2013-07-27 09:53:00,
2013-07-27 05:58:00,65.5,60.8,29.86,NNW,337,0.0,0.0,85,0.00,,,0.00,Weather8,2013-07-27 09:58:00,
2013-07-27 06:03:00,65.7,61.0,29.86,NNW,337,0.0,0.0,85,0.00,,,0.00,Weather8,2013-07-27 10:03:00,
2013-07-27 06:08:00,65.7,61.0,29.86,NNW,337,0.0,0.0,85,0.00,,,0.00,Weather8,2013-07-27 10:08:00,
2013-07-27 06:13:00,65.7,61.4,29.86,NNW,337,0.0,0.0,86,0.00,,,0.00,Weather8,2013-07-27 10:13:00,
2013-07-27 06:18:00,65.7,61.4,29.86,WNW,292,0.0,0.4,86,0.00,,,0.00,Weather8,2013-07-27 10:18:00,
2013-07-27 06:23:00,65.7,61.4,29.86,WNW,292,0.0,0.4,86,0.00,,,0.00,Weather8,2013-07-27 10:23:00,
2013-07-27 06:28:00,65.7,61.4,29.85,WNW,292,0.0,0.0,86,0.00,,,0.00,Weather8,2013-07-27 10:28:00,
2013-07-27 06:33:00,65.7,61.4,29.85,WNW,292,0.0,0.0,86,0.00,,,0.00,Weather8,2013-07-27 10:33:00,
2013-07-27 06:38:00,65.9,61.6,29.85,WSW,247,0.0,0.0,86,0.00,,,0.00,Weather8,2013-07-27 10:38:00,
2013-07-27 06:43:00,65.9,61.6,29.85,SSW,202,0.2,0.7,86,0.00,,,0.00,Weather8,2013-07-27 10:43:00,
2013-07-27 06:48:00,65.9,61.6,29.85,SSW,202,0.4,0.7,86,0.00,,,0.00,Weather8,2013-07-27 10:48:00,
2013-07-27 06:53:00,65.9,61.6,29.85,SSW,202,0.4,0.7,86,0.00,,,0.00,Weather8,2013-07-27 10:53:00,
2013-07-27 06:58:00,66.1,61.8,29.85,SSW,202,0.2,0.4,86,0.00,,,0.00,Weather8,2013-07-27 10:58:00,
2013-07-27 07:03:00,66.1,62.0,29.85,SSW,202,0.4,0.4,87,0.00,,,0.00,Weather8,2013-07-27 11:03:00,
2013-07-27 07:08:00,66.2,62.2,29.85,SW,225,1.1,1.1,87,0.00,,,0.00,Weather8,2013-07-27 11:08:00,
2013-07-27 07:13:00,66.2,62.2,29.85,SW,225,1.1,1.1,87,0.00,,,0.00,Weather8,2013-07-27 11:13:00,
2013-07-27 07:18:00,66.6,62.6,29.85,SSW,202,0.9,1.1,87,0.00,,,0.00,Weather8,2013-07-27 11:18:00,
2013-07-27 07:23:00,66.6,62.6,29.86,SW,225,1.8,1.8,87,0.00,,,0.00,Weather8,2013-07-27 11:23:00,
2013-07-27 07:28:00,67.0,62.9,29.85,SSW,202,0.4,1.8,87,0.00,,,0.00,Weather8,2013-07-27 11:28:00,
2013-07-27 07:33:00,67.1,63.5,29.86,SSW,202,0.4,1.8,88,0.00,,,0.00,Weather8,2013-07-27 11:33:00,
2013-07-27 07:38:00,67.3,63.3,29.85,SW,225,0.4,0.7,87,0.00,,,0.00,Weather8,2013-07-27 11:38:00,
2013-07-27 07:43:00,67.7,63.6,29.86,South,180,1.1,1.1,87,0.00,,,0.00,Weather8,2013-07-27 11:43:00,
2013-07-27 07:48:00,67.9,63.8,29.86,WSW,247,0.7,1.1,87,0.00,,,0.00,Weather8,2013-07-27 11:48:00,
2013-07-27 07:53:00,68.0,64.0,29.86,SW,225,0.7,1.3,87,0.00,,,0.00,Weather8,2013-07-27 11:53:00,
2013-07-27 07:58:00,68.4,64.4,29.86,South,180,1.3,1.3,87,0.00,,,0.00,Weather8,2013-07-27 11:58:00,
2013-07-27 08:03:00,68.8,64.7,29.86,SSE,157,1.6,1.6,87,0.00,,,0.00,Weather8,2013-07-27 12:03:00,
2013-07-27 08:08:00,68.9,64.9,29.86,SSE,157,1.6,1.6,87,0.00,,,0.00,Weather8,2013-07-27 12:08:00,
2013-07-27 08:13:00,69.1,64.7,29.85,SSW,202,1.3,1.6,86,0.00,,,0.00,Weather8,2013-07-27 12:13:00,
2013-07-27 08:18:00,69.5,65.1,29.86,South,180,1.3,1.6,86,0.00,,,0.00,Weather8,2013-07-27 12:18:00,
2013-07-27 08:23:00,70.0,65.6,29.86,SSW,202,1.3,1.3,86,0.00,,,0.00,Weather8,2013-07-27 12:23:00,
2013-07-27 08:28:00,70.2,65.4,29.86,SSW,202,0.0,1.3,85,0.00,,,0.00,Weather8,2013-07-27 12:28:00,
2013-07-27 08:33:00,70.4,65.6,29.86,South,180,0.4,1.3,85,0.00,,,0.00,Weather8,2013-07-27 12:33:00,
2013-07-27 08:38:00,70.7,66.0,29.87,SW,225,0.0,0.4,85,0.00,,,0.00,Weather8,2013-07-27 12:38:00,
2013-07-27 08:43:00,71.3,66.5,29.87,SSW,202,0.4,0.4,85,0.00,,,0.00,Weather8,2013-07-27 12:43:00,
2013-07-27 08:48:00,71.6,66.5,29.87,SSW,202,0.7,0.7,84,0.00,,,0.00,Weather8,2013-07-27 12:48:00,
2013-07-27 08:53:00,72.2,67.1,29.87,SW,225,0.4,1.1,84,0.00,,,0.00,Weather8,2013-07-27 12:53:00,
2013-07-27 08:58:00,72.5,67.1,29.87,SW,225,1.1,1.1,83,0.00,,,0.00,Weather8,2013-07-27 12:58:00,
2013-07-27 09:03:00,72.9,67.4,29.87,SW,225,0.4,1.1,83,0.00,,,0.00,Weather8,2013-07-27 13:03:00,
2013-07-27 09:08:00,73.1,67.6,29.87,SSW,202,0.4,1.1,83,0.00,,,0.00,Weather8,2013-07-27 13:08:00,
2013-07-27 09:13:00,73.4,67.7,29.86,SW,225,1.1,1.1,82,0.00,,,0.00,Weather8,2013-07-27 13:13:00,
2013-07-27 09:18:00,73.8,67.3,29.87,SSW,202,2.2,2.2,80,0.00,,,0.00,Weather8,2013-07-27 13:18:00,
2013-07-27 09:23:00,74.0,67.5,29.87,NW,315,0.4,2.2,80,0.00,,,0.00,Weather8,2013-07-27 13:23:00,
2013-07-27 09:28:00,74.3,67.9,29.87,SW,225,0.7,2.2,80,0.00,,,0.00,Weather8,2013-07-27 13:28:00,
2013-07-27 09:33:00,74.3,67.5,29.87,WSW,247,0.7,1.3,79,0.00,,,0.00,Weather8,2013-07-27 13:33:00,
2013-07-27 09:38:00,74.5,67.7,29.87,South,180,1.6,1.6,79,0.00,,,0.00,Weather8,2013-07-27 13:38:00,
2013-07-27 09:43:00,75.2,68.0,29.86,SSE,157,1.1,1.8,78,0.00,,,0.00,Weather8,2013-07-27 13:43:00,
2013-07-27 09:48:00,75.4,68.1,29.86,SSE,157,0.0,1.8,78,0.00,,,0.00,Weather8,2013-07-27 13:48:00,
2013-07-27 09:53:00,75.4,68.1,29.87,SE,135,0.4,1.8,78,0.00,,,0.00,Weather8,2013-07-27 13:53:00,
2013-07-27 09:58:00,75.8,67.7,29.86,SSW,202,1.8,1.8,76,0.00,,,0.00,Weather8,2013-07-27 13:58:00,
2013-07-27 10:03:00,76.0,67.9,29.86,SW,225,1.1,1.8,76,0.00,,,0.00,Weather8,2013-07-27 14:03:00,
2013-07-27 10:08:00,76.3,68.2,29.86,SSW,202,1.1,1.8,76,0.00,,,0.00,Weather8,2013-07-27 14:08:00,
2013-07-27 10:13:00,77.2,68.3,29.87,South,180,2.5,2.7,74,0.00,,,0.00,Weather8,2013-07-27 14:13:00,
2013-07-27 10:18:00,77.4,68.0,29.86,SSW,202,1.1,2.7,73,0.00,,,0.00,Weather8,2013-07-27 14:18:00,
2013-07-27 10:23:00,77.8,68.1,29.86,SW,225,2.0,2.7,72,0.00,,,0.00,Weather8,2013-07-27 14:23:00,
2013-07-27 10:28:00,78.3,68.1,29.86,SSE,157,1.1,2.0,71,0.00,,,0.00,Weather8,2013-07-27 14:28:00,
2013-07-27 10:33:00,78.7,68.5,29.86,SSW,202,2.0,2.0,71,0.00,,,0.00,Weather8,2013-07-27 14:33:00,
2013-07-27 10:38:00,79.0,68.0,29.87,SSE,157,1.1,2.0,69,0.00,,,0.00,Weather8,2013-07-27 14:38:00,
2013-07-27 10:43:00,79.2,68.6,29.87,SE,135,1.3,2.0,70,0.00,,,0.00,Weather8,2013-07-27 14:43:00,
2013-07-27 10:48:00,79.4,67.9,29.87,WSW,247,0.4,1.3,68,0.00,,,0.00,Weather8,2013-07-27 14:48:00,
2013-07-27 10:53:00,79.7,67.8,29.87,SW,225,2.5,2.5,67,0.00,,,0.00,Weather8,2013-07-27 14:53:00,
2013-07-27 10:58:00,80.8,67.5,29.87,SW,225,2.0,2.5,64,0.00,,,0.00,Weather8,2013-07-27 14:58:00,
2013-07-27 11:03:00,81.9,67.6,29.87,SW,225,1.1,3.6,62,0.00,,,0.00,Weather8,2013-07-27 15:03:00,
2013-07-27 11:08:00,82.3,67.0,29.87,SW,225,1.6,3.6,60,0.00,,,0.00,Weather8,2013-07-27 15:08:00,
2013-07-27 11:13:00,82.4,67.6,29.87,South,180,1.8,3.6,61,0.00,,,0.00,Weather8,2013-07-27 15:13:00,
2013-07-27 11:18:00,82.3,67.9,29.87,SSE,157,1.3,2.2,62,0.00,,,0.00,Weather8,2013-07-27 15:18:00,
2013-07-27 11:23:00,82.1,68.1,29.87,SW,225,0.9,2.2,63,0.00,,,0.00,Weather8,2013-07-27 15:23:00,
2013-07-27 11:29:00,82.3,67.9,29.87,SSW,202,0.4,0.4,62,0.00,,,0.00,Weather8,2013-07-27 15:29:00,
2013-07-27 11:34:00,82.1,67.7,29.87,SSE,157,1.8,1.8,62,0.00,,,0.00,Weather8,2013-07-27 15:34:00,
2013-07-27 11:39:00,82.1,67.7,29.87,SW,225,1.6,1.8,62,0.00,,,0.00,Weather8,2013-07-27 15:39:00,
2013-07-27 11:44:00,82.4,68.5,29.87,SSE,157,0.2,1.8,63,0.00,,,0.00,Weather8,2013-07-27 15:44:00,
2013-07-27 11:49:00,83.3,67.5,29.86,SSE,157,2.2,2.2,59,0.00,,,0.00,Weather8,2013-07-27 15:49:00,
2013-07-27 11:54:00,83.2,66.3,29.86,South,180,0.7,2.2,57,0.00,,,0.00,Weather8,2013-07-27 15:54:00,
2013-07-27 12:00:00,83.2,67.3,29.87,SSE,157,0.9,2.2,59,0.00,,,0.00,Weather8,2013-07-27 16:00:00,
2013-07-27 12:05:00,83.2,66.3,29.87,South,180,1.1,2.2,57,0.00,,,0.00,Weather8,2013-07-27 16:05:00,
2013-07-27 12:10:00,83.3,66.5,29.87,SSE,157,1.8,1.8,57,0.00,,,0.00,Weather8,2013-07-27 16:10:00,
2013-07-27 12:15:00,83.3,66.5,29.87,SSW,202,1.1,1.8,57,0.00,,,0.00,Weather8,2013-07-27 16:15:00,
2013-07-27 12:20:00,83.5,68.2,29.86,South,180,2.2,2.2,60,0.00,,,0.00,Weather8,2013-07-27 16:20:00,
2013-07-27 12:25:00,83.9,68.6,29.86,SSE,157,1.6,2.2,60,0.00,,,0.00,Weather8,2013-07-27 16:25:00,
2013-07-27 12:30:00,84.2,68.9,29.86,SSE,157,1.1,2.2,60,0.00,,,0.00,Weather8,2013-07-27 16:30:00,
2013-07-27 12:35:00,84.8,69.0,29.86,SSW,202,3.6,3.6,59,0.00,,,0.00,Weather8,2013-07-27 16:35:00,
2013-07-27 12:40:00,85.0,69.0,29.86,SW,225,3.8,3.8,59,0.00,,,0.00,Weather8,2013-07-27 16:40:00,
2013-07-27 12:45:00,85.5,69.0,29.85,SW,225,2.5,3.8,58,0.00,,,0.00,Weather8,2013-07-27 16:45:00,
2013-07-27 12:50:00,85.5,69.0,29.85,SW,225,2.5,3.8,58,0.00,,,0.00,Weather8,2013-07-27 16:50:00,
2013-07-27 12:55:00,85.5,69.0,29.85,SW,225,2.5,2.5,58,0.00,,,0.00,Weather8,2013-07-27 16:55:00,
2013-07-27 13:00:00,85.5,69.0,29.85,SW,225,2.5,2.5,58,0.00,,,0.00,Weather8,2013-07-27 17:00:00,
2013-07-27 13:05:00,85.3,69.9,29.85,WSW,247,3.4,3.4,60,0.00,,,0.00,Weather8,2013-07-27 17:05:00,
2013-07-27 13:10:00,85.5,69.6,29.85,SW,225,2.5,3.4,59,0.00,,,0.00,Weather8,2013-07-27 17:10:00,
2013-07-27 13:15:00,85.1,68.7,29.85,SSE,157,1.1,3.4,58,0.00,,,0.00,Weather8,2013-07-27 17:15:00,
2013-07-27 13:20:00,85.3,68.3,29.84,SSW,202,1.8,2.5,57,0.00,,,0.00,Weather8,2013-07-27 17:20:00,
2013-07-27 13:25:00,86.0,68.5,29.84,SE,135,3.4,3.4,56,0.00,,,0.00,Weather8,2013-07-27 17:25:00,
2013-07-27 13:30:00,86.4,68.9,29.84,SSE,157,1.8,3.4,56,0.00,,,0.00,Weather8,2013-07-27 17:30:00,
2013-07-27 13:35:00,86.4,68.9,29.84,SSE,157,1.8,3.4,56,0.00,,,0.00,Weather8,2013-07-27 17:35:00,
2013-07-27 13:40:00,86.4,68.9,29.84,SSE,157,1.8,1.8,56,0.00,,,0.00,Weather8,2013-07-27 17:40:00,
2013-07-27 13:45:00,86.6,68.5,29.83,SSE,157,1.1,1.8,55,0.00,,,0.00,Weather8,2013-07-27 17:45:00,
2013-07-27 13:50:00,86.8,69.7,29.83,SSW,202,0.4,1.8,57,0.00,,,0.00,Weather8,2013-07-27 17:50:00,
2013-07-27 13:55:00,86.6,69.5,29.82,South,180,1.1,1.1,57,0.00,,,0.00,Weather8,2013-07-27 17:55:00,
2013-07-27 14:00:00,86.4,69.3,29.83,SSW,202,0.7,1.1,57,0.00,,,0.00,Weather8,2013-07-27 18:00:00,
2013-07-27 14:05:00,86.2,68.7,29.83,SSE,157,1.1,1.1,56,0.00,,,0.00,Weather8,2013-07-27 18:05:00,
2013-07-27 14:10:00,86.2,68.7,29.83,SSE,157,1.1,1.1,56,0.00,,,0.00,Weather8,2013-07-27 18:10:00,
2013-07-27 14:15:00,86.2,68.7,29.83,SSE,157,1.1,1.1,56,0.00,,,0.00,Weather8,2013-07-27 18:15:00,
2013-07-27 14:20:00,84.4,67.5,29.83,WSW,247,1.1,1.1,57,0.00,,,0.00,Weather8,2013-07-27 18:20:00,
2013-07-27 14:25:00,84.2,67.9,29.83,ESE,112,0.0,1.1,58,0.00,,,0.00,Weather8,2013-07-27 18:25:00,
2013-07-27 14:30:00,84.2,67.9,29.83,ESE,112,0.0,1.1,58,0.00,,,0.00,Weather8,2013-07-27 18:30:00,
2013-07-27 14:35:00,84.2,67.9,29.83,ESE,112,0.0,0.0,58,0.00,,,0.00,Weather8,2013-07-27 18:35:00,
2013-07-27 14:40:00,84.2,67.9,29.83,ESE,112,0.0,0.0,58,0.00,,,0.00,Weather8,2013-07-27 18:40:00,
2013-07-27 14:45:00,84.2,67.9,29.83,ESE,112,0.0,0.0,58,0.00,,,0.00,Weather8,2013-07-27 18:45:00,
2013-07-27 14:50:00,84.2,67.9,29.83,ESE,112,0.0,0.0,58,0.00,,,0.00,Weather8,2013-07-27 18:50:00,
2013-07-27 14:55:00,85.0,67.5,29.82,East,90,0.7,0.7,56,0.00,,,0.00,Weather8,2013-07-27 18:55:00,
2013-07-27 15:00:00,84.8,67.3,29.82,SW,225,2.2,2.2,56,0.00,,,0.00,Weather8,2013-07-27 19:00:00,
2013-07-27 15:05:00,84.8,67.3,29.81,SSE,157,1.8,2.2,56,0.00,,,0.00,Weather8,2013-07-27 19:05:00,
2013-07-27 15:10:00,85.0,67.5,29.81,WNW,292,2.7,2.7,56,0.00,,,0.00,Weather8,2013-07-27 19:10:00,
2013-07-27 15:15:00,85.1,66.1,29.81,South,180,0.4,2.7,53,0.00,,,0.00,Weather8,2013-07-27 19:15:00,
2013-07-27 15:20:00,85.1,66.6,29.81,SSW,202,1.8,2.7,54,0.00,,,0.00,Weather8,2013-07-27 19:20:00,
2013-07-27 15:25:00,85.3,66.8,29.81,SSE,157,0.4,2.7,54,0.00,,,0.00,Weather8,2013-07-27 19:25:00,
2013-07-27 15:30:00,85.5,67.5,29.81,SE,135,0.4,2.7,55,0.00,,,0.00,Weather8,2013-07-27 19:30:00,
2013-07-27 15:35:00,85.5,67.5,29.81,SE,135,0.4,2.7,55,0.00,,,0.00,Weather8,2013-07-27 19:35:00,
2013-07-27 15:40:00,85.5,67.5,29.81,SE,135,0.4,0.4,55,0.00,,,0.00,Weather8,2013-07-27 19:40:00,
2013-07-27 15:45:00,85.7,68.1,29.81,SSE,157,1.8,1.8,56,0.00,,,0.00,Weather8,2013-07-27 19:45:00,
2013-07-27 15:50:00,85.5,67.0,29.80,SSE,157,2.9,2.9,54,0.00,,,0.00,Weather8,2013-07-27 19:50:00,
2013-07-27 15:55:00,85.5,66.4,29.80,SW,225,1.8,2.9,53,0.00,,,0.00,Weather8,2013-07-27 19:55:00,
2013-07-27 16:00:00,85.5,65.9,29.80,SSW,202,4.9,4.9,52,0.00,,,0.00,Weather8,2013-07-27 20:00:00,
2013-07-27 16:05:00,85.7,66.1,29.80,SSW,202,0.7,4.9,52,0.00,,,0.00,Weather8,2013-07-27 20:05:00,
2013-07-27 16:10:00,85.7,66.6,29.80,SSW,202,1.6,4.9,53,0.00,,,0.00,Weather8,2013-07-27 20:10:00,
2013-07-27 16:15:00,85.7,66.1,29.79,South,180,1.1,1.6,52,0.00,,,0.00,Weather8,2013-07-27 20:15:00,
2013-07-27 16:20:00,86.0,66.4,29.79,SSW,202,1.1,1.6,52,0.00,,,0.00,Weather8,2013-07-27 20:20:00,
2013-07-27 16:25:00,86.0,65.3,29.79,South,180,1.3,1.6,50,0.00,,,0.00,Weather8,2013-07-27 20:25:00,
2013-07-27 16:30:00,86.0,65.9,29.79,ENE,67,2.2,2.2,51,0.00,,,0.00,Weather8,2013-07-27 20:30:00,
2013-07-27 16:35:00,86.2,66.1,29.79,South,180,0.7,2.2,51,0.00,,,0.00,Weather8,2013-07-27 20:35:00,
2013-07-27 16:40:00,86.2,66.5,29.79,SSW,202,0.9,2.2,52,0.00,,,0.00,Weather8,2013-07-27 20:40:00,
2013-07-27 16:45:00,86.4,66.2,29.79,SW,225,1.3,1.3,51,0.00,,,0.00,Weather8,2013-07-27 20:45:00,
2013-07-27 16:50:00,86.2,66.1,29.79,SW,225,0.9,1.3,51,0.00,,,0.00,Weather8,2013-07-27 20:50:00,
2013-07-27 16:55:00,86.4,66.7,29.79,SSE,157,2.9,2.9,52,0.00,,,0.00,Weather8,2013-07-27 20:55:00,
2013-07-27 17:00:00,86.2,67.1,29.79,SSE,157,1.8,2.9,53,0.00,,,0.00,Weather8,2013-07-27 21:00:00,
2013-07-27 17:05:00,85.5,67.0,29.79,SW,225,1.6,2.9,54,0.00,,,0.00,Weather8,2013-07-27 21:05:00,
2013-07-27 17:10:00,85.1,66.6,29.79,SSW,202,2.5,2.5,54,0.00,,,0.00,Weather8,2013-07-27 21:10:00,
2013-07-27 17:15:00,84.6,66.7,29.79,SE,135,1.1,2.5,55,0.00,,,0.00,Weather8,2013-07-27 21:15:00,
2013-07-27 17:20:00,84.1,66.7,29.79,East,90,1.1,2.5,56,0.00,,,0.00,Weather8,2013-07-27 21:20:00,
2013-07-27 17:25:00,83.0,65.6,29.79,South,180,0.4,2.5,56,0.00,,,0.00,Weather8,2013-07-27 21:25:00,
2013-07-27 17:30:00,82.4,65.6,29.78,SSW,202,0.9,1.1,57,0.00,,,0.00,Weather8,2013-07-27 21:30:00,
2013-07-27 17:35:00,82.1,66.3,29.78,North,0,1.8,1.8,59,0.00,,,0.00,Weather8,2013-07-27 21:35:00,
2013-07-27 17:40:00,81.7,66.0,29.78,East,90,0.9,1.8,59,0.00,,,0.00,Weather8,2013-07-27 21:40:00,
2013-07-27 17:45:00,81.4,66.6,29.79,NE,45,1.1,1.8,61,0.00,,,0.00,Weather8,2013-07-27 21:45:00,
2013-07-27 17:50:00,81.0,66.3,29.79,SSW,202,0.4,1.8,61,0.00,,,0.00,Weather8,2013-07-27 21:50:00,
2013-07-27 17:55:00,80.8,66.2,29.78,ENE,67,1.8,1.8,61,0.00,,,0.00,Weather8,2013-07-27 21:55:00,
2013-07-27 18:00:00,80.3,66.1,29.79,SSE,157,0.2,2.5,62,0.00,,,0.00,Weather8,2013-07-27 22:00:00,
2013-07-27 18:05:00,80.3,66.5,29.78,South,180,0.4,2.5,63,0.00,,,0.00,Weather8,2013-07-27 22:05:00,
2013-07-27 18:10:00,80.1,65.9,29.79,SSW,202,0.4,2.5,62,0.00,,,0.00,Weather8,2013-07-27 22:10:00,
2013-07-27 18:15:00,79.9,66.3,29.78,South,180,0.4,0.4,63,0.00,,,0.00,Weather8,2013-07-27 22:15:00,
2013-07-27 18:20:00,79.7,66.1,29.79,SSE,157,0.4,2.5,63,0.00,,,0.00,Weather8,2013-07-27 22:20:00,
2013-07-27 18:25:00,79.9,66.6,29.79,SW,225,1.1,2.5,64,0.00,,,0.00,Weather8,2013-07-27 22:25:00,
2013-07-27 18:30:00,79.7,66.5,29.79,South,180,1.3,2.5,64,0.00,,,0.00,Weather8,2013-07-27 22:30:00,
2013-07-27 18:35:00,79.6,66.3,29.79,SSW,202,1.1,1.3,64,0.00,,,0.00,Weather8,2013-07-27 22:35:00,
2013-07-27 18:40:00,79.2,66.4,29.79,SSE,157,1.1,1.3,65,0.00,,,0.00,Weather8,2013-07-27 22:40:00,
2013-07-27 18:45:00,78.8,66.5,29.79,SSW,202,0.9,1.3,66,0.00,,,0.00,Weather8,2013-07-27 22:45:00,
2013-07-27 18:50:00,78.5,66.6,29.79,South,180,1.6,1.6,67,0.00,,,0.00,Weather8,2013-07-27 22:50:00,
2013-07-27 18:55:00,78.3,67.3,29.79,SW,225,2.5,2.5,69,0.00,,,0.00,Weather8,2013-07-27 22:55:00,
2013-07-27 19:00:00,78.1,67.2,29.79,SW,225,1.8,2.5,69,0.00,,,0.00,Weather8,2013-07-27 23:00:00,
2013-07-27 19:05:00,78.3,68.1,29.79,SSW,202,2.9,2.9,71,0.00,,,0.00,Weather8,2013-07-27 23:05:00,
2013-07-27 19:10:00,77.9,67.8,29.79,East,90,2.5,2.9,71,0.00,,,0.00,Weather8,2013-07-27 23:10:00,
2013-07-27 19:15:00,77.6,67.5,29.79,SSE,157,0.2,2.9,71,0.00,,,0.00,Weather8,2013-07-27 23:15:00,
2013-07-27 19:20:00,77.6,67.5,29.79,SSW,202,0.0,2.5,71,0.00,,,0.00,Weather8,2013-07-27 23:20:00,
2013-07-27 19:25:00,77.4,67.3,29.79,SSE,157,0.0,2.5,71,0.00,,,0.00,Weather8,2013-07-27 23:25:00,
2013-07-27 19:30:00,77.2,67.1,29.79,SW,225,0.2,0.4,71,0.00,,,0.00,Weather8,2013-07-27 23:30:00,
2013-07-27 19:35:00,77.0,67.8,29.79,South,180,1.8,1.8,73,0.00,,,0.00,Weather8,2013-07-27 23:35:00,
2013-07-27 19:40:00,76.9,67.1,29.79,South,180,0.4,1.8,72,0.00,,,0.00,Weather8,2013-07-27 23:40:00,
2013-07-27 19:45:00,76.7,67.0,29.79,SSE,157,0.7,1.8,72,0.00,,,0.00,Weather8,2013-07-27 23:45:00,
2013-07-27 19:50:00,76.5,66.9,29.79,SW,225,1.1,1.1,72,0.00,,,0.00,Weather8,2013-07-27 23:50:00,
2013-07-27 19:55:00,76.3,67.1,29.79,SSE,157,1.1,1.1,73,0.00,,,0.00,Weather8,2013-07-27 23:55:00,
2013-07-27 20:00:00,76.1,66.9,29.79,SW,225,0.7,1.1,73,0.00,,,0.00,Weather8,2013-07-28 00:00:00,
2013-07-27 20:05:00,76.0,66.7,29.79,South,180,0.4,1.1,73,0.00,,,0.00,Weather8,2013-07-28 00:05:00,
2013-07-27 20:10:00,75.8,66.9,29.79,SW,225,0.9,1.1,74,0.00,,,0.00,Weather8,2013-07-28 00:10:00,
2013-07-27 20:15:00,75.8,66.9,29.79,ESE,112,0.9,0.9,74,0.00,,,0.00,Weather8,2013-07-28 00:15:00,
2013-07-27 20:20:00,75.4,67.0,29.79,SSW,202,0.0,1.6,75,0.00,,,0.00,Weather8,2013-07-28 00:20:00,
2013-07-27 20:25:00,75.4,67.0,29.79,SSW,202,0.4,1.6,75,0.00,,,0.00,Weather8,2013-07-28 00:25:00,
2013-07-27 20:30:00,75.4,67.0,29.79,SSW,202,0.4,1.6,75,0.00,,,0.00,Weather8,2013-07-28 00:30:00,
2013-07-27 20:35:00,75.4,67.0,29.79,SSW,202,0.4,0.4,75,0.00,,,0.00,Weather8,2013-07-28 00:35:00,
2013-07-27 20:40:00,75.4,67.0,29.79,SSW,202,0.4,0.4,75,0.00,,,0.00,Weather8,2013-07-28 00:40:00,
2013-07-27 20:45:00,75.4,67.0,29.79,SSW,202,0.4,0.4,75,0.00,,,0.00,Weather8,2013-07-28 00:45:00,
2013-07-27 20:50:00,75.4,67.0,29.79,SSW,202,0.4,0.4,75,0.00,,,0.00,Weather8,2013-07-28 00:50:00,
2013-07-27 20:55:00,74.7,66.2,29.80,SSW,202,0.0,0.4,75,0.00,,,0.00,Weather8,2013-07-28 00:55:00,
2013-07-27 21:00:00,74.5,66.1,29.80,SSW,202,0.0,0.4,75,0.00,,,0.00,Weather8,2013-07-28 01:00:00,
2013-07-27 21:05:00,74.3,66.3,29.80,SSW,202,0.0,0.4,76,0.00,,,0.00,Weather8,2013-07-28 01:05:00,
2013-07-27 21:10:00,74.3,66.3,29.80,SSW,202,0.0,0.0,76,0.00,,,0.00,Weather8,2013-07-28 01:10:00,
2013-07-27 21:15:00,74.0,66.3,29.80,SSW,202,0.0,0.2,77,0.00,,,0.00,Weather8,2013-07-28 01:15:00,
2013-07-27 21:20:00,73.8,66.2,29.80,SSW,202,0.0,0.2,77,0.00,,,0.00,Weather8,2013-07-28 01:20:00,
2013-07-27 21:25:00,73.6,66.0,29.80,SSW,202,0.0,0.2,77,0.00,,,0.00,Weather8,2013-07-28 01:25:00,
2013-07-27 21:30:00,73.4,65.8,29.80,SSW,202,0.0,0.0,77,0.00,,,0.00,Weather8,2013-07-28 01:30:00,
2013-07-27 21:35:00,73.4,65.8,29.81,SSW,202,0.0,0.0,77,0.00,,,0.00,Weather8,2013-07-28 01:35:00,
2013-07-27 21:40:00,73.3,66.1,29.80,SSW,202,0.0,0.0,78,0.00,,,0.00,Weather8,2013-07-28 01:40:00,
2013-07-27 21:45:00,73.1,65.9,29.80,SSW,202,0.0,0.0,78,0.00,,,0.00,Weather8,2013-07-28 01:45:00,
2013-07-27 21:50:00,73.1,65.9,29.80,SSW,202,0.0,0.0,78,0.00,,,0.00,Weather8,2013-07-28 01:50:00,
2013-07-27 21:55:00,72.9,65.7,29.80,SSW,202,0.0,0.0,78,0.00,,,0.00,Weather8,2013-07-28 01:55:00,
2013-07-27 22:00:00,72.7,65.9,29.80,SSW,202,0.0,0.0,79,0.00,,,0.00,Weather8,2013-07-28 02:00:00,
2013-07-27 22:05:00,72.5,65.7,29.80,SSW,202,0.0,0.0,79,0.00,,,0.00,Weather8,2013-07-28 02:05:00,
2013-07-27 22:10:00,72.5,65.7,29.80,SSW,202,0.0,0.0,79,0.00,,,0.00,Weather8,2013-07-28 02:10:00,
2013-07-27 22:15:00,72.4,65.2,29.79,SSW,202,0.0,0.0,78,0.00,,,0.00,Weather8,2013-07-28 02:15:00,
2013-07-27 22:20:00,72.4,65.2,29.79,SSW,202,0.0,0.0,78,0.00,,,0.00,Weather8,2013-07-28 02:20:00,
2013-07-27 22:25:00,72.0,65.2,29.79,SSW,202,0.0,0.0,79,0.00,,,0.00,Weather8,2013-07-28 02:25:00,
2013-07-27 22:30:00,71.8,65.0,29.79,SSW,202,0.0,0.0,79,0.00,,,0.00,Weather8,2013-07-28 02:30:00,
2013-07-27 22:35:00,71.6,64.8,29.79,SSW,202,0.0,0.0,79,0.00,,,0.00,Weather8,2013-07-28 02:35:00,
2013-07-27 22:40:00,71.6,64.8,29.78,SSW,202,0.0,0.0,79,0.00,,,0.00,Weather8,2013-07-28 02:40:00,
2013-07-27 22:45:00,71.6,65.2,29.78,SSW,202,0.0,0.0,80,0.00,,,0.00,Weather8,2013-07-28 02:45:00,
2013-07-27 22:50:00,71.5,65.0,29.78,SSW,202,0.0,0.0,80,0.00,,,0.00,Weather8,2013-07-28 02:50:00,
2013-07-27 22:55:00,71.5,65.0,29.77,SSW,202,0.0,0.0,80,0.00,,,0.00,Weather8,2013-07-28 02:55:00,
2013-07-27 23:00:00,71.3,64.8,29.77,SSW,202,0.0,0.0,80,0.00,,,0.00,Weather8,2013-07-28 03:00:00,
2013-07-27 23:05:00,71.3,64.8,29.78,SSW,202,0.0,0.0,80,0.00,,,0.00,Weather8,2013-07-28 03:05:00,
2013-07-27 23:10:00,71.1,64.6,29.77,SSW,202,0.0,0.0,80,0.00,,,0.00,Weather8,2013-07-28 03:10:00,
2013-07-27 23:15:00,70.9,64.4,29.77,SSW,202,0.0,0.0,80,0.00,,,0.00,Weather8,2013-07-28 03:15:00,
2013-07-27 23:20:00,70.9,64.4,29.77,SSW,202,0.0,0.0,80,0.00,,,0.00,Weather8,2013-07-28 03:20:00,
2013-07-27 23:25:00,70.7,64.6,29.77,SSW,202,0.0,0.0,81,0.00,,,0.00,Weather8,2013-07-28 03:25:00,
2013-07-27 23:30:00,70.6,64.5,29.77,SSW,202,0.0,0.0,81,0.00,,,0.00,Weather8,2013-07-28 03:30:00,
2013-07-27 23:35:00,70.6,64.5,29.77,SSW,202,0.0,0.0,81,0.00,,,0.00,Weather8,2013-07-28 03:35:00,
2013-07-27 23:40:00,70.2,64.1,29.77,South,180,0.0,0.2,81,0.00,,,0.00,Weather8,2013-07-28 03:40:00,
2013-07-27 23:45:00,70.2,64.5,29.77,South,180,0.0,0.2,82,0.00,,,0.00,Weather8,2013-07-28 03:45:00,
2013-07-27 23:50:00,70.2,64.5,29.77,South,180,0.0,0.0,82,0.00,,,0.00,Weather8,2013-07-28 03:50:00,
2013-07-27 23:55:00,69.8,64.1,29.77,South,180,0.0,0.0,82,0.00,,,0.00,Weather8,2013-07-28 03:55:00,